• In Netherlands
  • List of Countries
  • For 7 days
  • Water Temperature
  • Satellite Maps
  • Weather Map
  • Weather Widgets
  • user-avatar
    Login

    Hourly Weather Klagenfurt

    Today, 23 September, Sunday

    Time Temperature Precipitation Wind Pressure Humidity
    00:00 +10°C° 0 mm 1 mps 692 mmHg 91%
    01:00 +10°C° 0 mm 1 mps 692 mmHg 90%
    02:00 +10°C° 0.1 mm 1 mps 692 mmHg 89%
    03:00 +10°C° 0.1 mm 1 mps 692 mmHg 89%
    04:00 +10°C° 0.1 mm 1 mps 692 mmHg 89%
    05:00 +11°C° 0 mm 1 mps 692 mmHg 88%
    06:00 +11°C° 0 mm 1 mps 692 mmHg 88%
    07:00 +11°C° 0 mm 1 mps 692 mmHg 88%
    08:00 +13°C° 0 mm 1 mps 692 mmHg 84%
    09:00 +14°C° 0 mm 1 mps 692 mmHg 81%
    10:00 +15°C° 0 mm 1 mps 693 mmHg 78%
    11:00 +18°C° 0 mm 1 mps 693 mmHg 75%
    12:00 +19°C° 0 mm 1 mps 692 mmHg 73%
    13:00 +21°C° 0 mm 1 mps 692 mmHg 70%
    14:00 +21°C° 0 mm 1 mps 692 mmHg 73%
    15:00 +20°C° 0 mm 2 mps 691 mmHg 77%
    16:00 +20°C° 0 mm 2 mps 691 mmHg 80%
    17:00 +19°C° 0 mm 2 mps 690 mmHg 85%
    18:00 +18°C° 0 mm 2 mps 690 mmHg 90%
    19:00 +17°C° 0 mm 2 mps 689 mmHg 96%
    20:00 +16°C° 0.1 mm 2 mps 688 mmHg 96%
    21:00 +16°C° 0.1 mm 2 mps 688 mmHg 96%
    22:00 +16°C° 0.1 mm 2 mps 687 mmHg 97%
    23:00 +16°C° 0.1 mm 2 mps 687 mmHg 96%

    Tomorrow, 24 September, Monday

    Time Temperature Precipitation Wind Pressure Humidity
    00:00 +16°C° 0.1 mm 2 mps 687 mmHg 96%
    01:00 +16°C° 0.1 mm 2 mps 687 mmHg 96%
    02:00 +16°C° 1.4 mm 2 mps 687 mmHg 95%
    03:00 +15°C° 1.4 mm 2 mps 688 mmHg 94%
    04:00 +14°C° 1.4 mm 2 mps 689 mmHg 93%
    05:00 +13°C° 1.5 mm 2 mps 689 mmHg 92%
    06:00 +12°C° 1.5 mm 2 mps 690 mmHg 91%
    07:00 +10°C° 1.5 mm 2 mps 691 mmHg 90%
    08:00 +11°C° 0.5 mm 3 mps 693 mmHg 81%
    09:00 +11°C° 0.5 mm 3 mps 694 mmHg 72%
    10:00 +12°C° 0.5 mm 4 mps 695 mmHg 63%
    11:00 +12°C° 0 mm 4 mps 696 mmHg 58%
    12:00 +13°C° 0 mm 4 mps 696 mmHg 54%
    13:00 +13°C° 0 mm 4 mps 697 mmHg 49%
    14:00 +13°C° 0 mm 4 mps 697 mmHg 49%
    15:00 +12°C° 0 mm 4 mps 697 mmHg 49%
    16:00 +12°C° 0 mm 4 mps 697 mmHg 49%
    17:00 +10°C° 0 mm 3 mps 697 mmHg 56%
    18:00 +8°C° 0 mm 2 mps 697 mmHg 63%
    19:00 +6°C° 0 mm 2 mps 697 mmHg 70%
    20:00 +5°C° 0 mm 2 mps 698 mmHg 71%
    21:00 +6°C° 0 mm 1 mps 698 mmHg 72%
    22:00 +5°C° 0 mm 1 mps 699 mmHg 74%
    23:00 +5°C° 0 mm 1 mps 699 mmHg 75%

    Day after tomorrow, 25 September, Tuesday

    Time Temperature Precipitation Wind Pressure Humidity
    00:00 +4°C° 0 mm 1 mps 699 mmHg 77%
    01:00 +4°C° 0 mm 1 mps 699 mmHg 78%
    02:00 +3°C° 0 mm 1 mps 699 mmHg 79%
    03:00 +3°C° 0 mm 1 mps 699 mmHg 80%
    04:00 +3°C° 0 mm 1 mps 700 mmHg 81%
    05:00 +4°C° 0 mm 1 mps 700 mmHg 79%
    06:00 +4°C° 0 mm 1 mps 700 mmHg 77%
    07:00 +5°C° 0 mm 1 mps 701 mmHg 75%
    08:00 +7°C° 0 mm 1 mps 701 mmHg 66%
    09:00 +8°C° 0 mm 2 mps 701 mmHg 57%
    10:00 +10°C° 0 mm 2 mps 702 mmHg 48%
    11:00 +12°C° 0 mm 2 mps 702 mmHg 45%
    12:00 +13°C° 0 mm 2 mps 702 mmHg 43%
    13:00 +14°C° 0 mm 2 mps 702 mmHg 40%
    14:00 +14°C° 0 mm 2 mps 701 mmHg 42%
    15:00 +13°C° 0 mm 2 mps 701 mmHg 43%
    16:00 +13°C° 0 mm 2 mps 701 mmHg 44%
    17:00 +10°C° 0 mm 2 mps 701 mmHg 53%
    18:00 +8°C° 0 mm 1 mps 701 mmHg 62%
    19:00 +6°C° 0 mm 1 mps 701 mmHg 71%
    20:00 +5°C° 0 mm 1 mps 701 mmHg 73%
    21:00 +5°C° 0 mm 1 mps 702 mmHg 75%
    22:00 +4°C° 0 mm 1 mps 702 mmHg 77%
    23:00 +3°C° 0 mm 1 mps 702 mmHg 78%

    26 September, Wednesday

    Time Temperature Precipitation Wind Pressure Humidity
    00:00 +3°C° 0 mm 1 mps 702 mmHg 79%
    01:00 +3°C° 0 mm 1 mps 702 mmHg 79%
    02:00 +2°C° 0 mm 1 mps 701 mmHg 80%
    03:00 +2°C° 0 mm 1 mps 701 mmHg 80%
    04:00 +2°C° 0 mm 1 mps 701 mmHg 80%
    05:00 +2°C° 0 mm 1 mps 701 mmHg 77%
    06:00 +3°C° 0 mm 1 mps 701 mmHg 74%
    07:00 +4°C° 0 mm 1 mps 701 mmHg 71%
    08:00 +6°C° 0 mm 1 mps 701 mmHg 62%
    09:00 +9°C° 0 mm 1 mps 702 mmHg 53%
    10:00 +12°C° 0 mm 1 mps 702 mmHg 44%
    11:00 +13°C° 0 mm 1 mps 702 mmHg 41%
    12:00 +14°C° 0 mm 1 mps 702 mmHg 39%
    13:00 +16°C° 0 mm 1 mps 701 mmHg 37%
    14:00 +15°C° 0 mm 1 mps 701 mmHg 39%
    15:00 +15°C° 0 mm 1 mps 701 mmHg 42%
    16:00 +15°C° 0 mm 1 mps 700 mmHg 44%
    17:00 +12°C° 0 mm 1 mps 700 mmHg 54%
    18:00 +10°C° 0 mm 1 mps 700 mmHg 63%
    19:00 +7°C° 0 mm 1 mps 699 mmHg 72%
    20:00 +7°C° 0 mm 1 mps 699 mmHg 73%
    21:00 +6°C° 0 mm 1 mps 699 mmHg 73%
    22:00 +6°C° 0 mm 1 mps 700 mmHg 74%
    23:00 +6°C° 0 mm 1 mps 699 mmHg 73%

    27 September, Thursday

    Time Temperature Precipitation Wind Pressure Humidity
    00:00 +6°C° 0 mm 1 mps 699 mmHg 72%
    01:00 +6°C° 0 mm 1 mps 699 mmHg 71%
    02:00 +6°C° 0 mm 1 mps 699 mmHg 70%
    03:00 +6°C° 0 mm 1 mps 698 mmHg 68%
    04:00 +6°C° 0 mm 1 mps 698 mmHg 67%
    05:00 +7°C° 0 mm 1 mps 698 mmHg 65%
    06:00 +8°C° 0 mm 1 mps 698 mmHg 64%
    07:00 +8°C° 0 mm 1 mps 698 mmHg 62%
    08:00 +12°C° 0 mm 1 mps 699 mmHg 54%
    09:00 +15°C° 0 mm 1 mps 700 mmHg 46%
    10:00 +18°C° 0 mm 0 mps 700 mmHg 37%
    11:00 +21°C° 0 mm 1 mps 700 mmHg 35%
    12:00 +22°C° 0 mm 1 mps 700 mmHg 33%
    13:00 +23°C° 0 mm 1 mps 700 mmHg 32%
    14:00 +22°C° 0 mm 1 mps 699 mmHg 37%
    15:00 +22°C° 0 mm 1 mps 699 mmHg 42%
    16:00 +21°C° 0 mm 1 mps 699 mmHg 47%
    17:00 +18°C° 0 mm 1 mps 698 mmHg 55%
    18:00 +14°C° 0 mm 1 mps 697 mmHg 63%
    19:00 +11°C° 0 mm 1 mps 697 mmHg 71%
    20:00 +11°C° 0 mm 1 mps 697 mmHg 72%
    21:00 +10°C° 0 mm 1 mps 697 mmHg 72%
    22:00 +10°C° 0 mm 1 mps 696 mmHg 73%
    23:00 +9°C° 0 mm 1 mps 696 mmHg 73%

    28 September, Friday

    Time Temperature Precipitation Wind Pressure Humidity
    00:00 +9°C° 0 mm 1 mps 696 mmHg 73%
    01:00 +9°C° 0 mm 1 mps 695 mmHg 72%
    02:00 +9°C° 0 mm 1 mps 695 mmHg 72%
    03:00 +9°C° 0 mm 1 mps 695 mmHg 71%
    04:00 +8°C° 0 mm 1 mps 694 mmHg 71%
    05:00 +9°C° 0 mm 1 mps 694 mmHg 69%
    06:00 +9°C° 0 mm 1 mps 694 mmHg 68%
    07:00 +10°C° 0 mm 1 mps 694 mmHg 67%
    08:00 +13°C° 0 mm 1 mps 695 mmHg 57%
    09:00 +18°C° 0 mm 1 mps 695 mmHg 48%
    10:00 +21°C° 0 mm 1 mps 696 mmHg 39%
    11:00 +22°C° 0 mm 1 mps 695 mmHg 36%
    12:00 +23°C° 0 mm 1 mps 695 mmHg 34%
    13:00 +24°C° 0 mm 1 mps 695 mmHg 31%
    14:00 +23°C° 0 mm 1 mps 695 mmHg 36%
    15:00 +22°C° 0 mm 1 mps 694 mmHg 41%
    16:00 +22°C° 0 mm 1 mps 694 mmHg 46%
    17:00 +19°C° 0 mm 1 mps 693 mmHg 53%
    18:00 +15°C° 0 mm 1 mps 693 mmHg 60%
    19:00 +12°C° 0 mm 1 mps 692 mmHg 67%
    20:00 +11°C° 0 mm 1 mps 692 mmHg 68%
    21:00 +11°C° 0 mm 1 mps 692 mmHg 69%
    22:00 +10°C° 0 mm 1 mps 692 mmHg 70%
    23:00 +10°C° 0 mm 1 mps 692 mmHg 71%
    Show more